Location: Detroit
(42.3310°N, 83.0460°W)
Time: 00:04:42
(UTC-04:00)

A-11 Canister half - Pass Details

Date: 14 February 2023
Orbit: 1526 x 1682 km, 47.3° (Epoch: 20 March)

Event Time Altitude Azimuth Distance (km) Brightness Sun altitude
Rises 07:59:36 0° 291° (WNW) 4,679 10.8 4.3°
Reaches altitude 10° 08:02:38 10° 292° (WNW) 3,697 10.4 4.8°
Maximum altitude 08:11:59 83° 22° (NNE) 1,554 9.2 6.4°
Drops below altitude 10° 08:21:31 10° 110° (ESE) 3,762 14.1 8.0°
Sets 08:24:38 0° 112° (ESE) 4,765 14.0 8.5°
